TimeAST,TemperatureF,Dew PointF,Humidity,Sea Level PressureIn,VisibilityMPH,Wind Direction,Wind SpeedMPH,Gust SpeedMPH,PrecipitationIn,Events,Conditions,WindDirDegrees,DateUTC
1:00 AM,78.8,71.6,78,30.01,6.2,East,10.4,-,N/A,,Partly Cloudy,90,2014-01-26 05:00:00
2:00 AM,78,70,70,30.01,19,East,12.7,,,,Partly Cloudy,90,2014-01-26 06:00:00
2:00 AM,77.0,69.8,78,30.01,6.2,East,12.7,-,N/A,,Scattered Clouds,90,2014-01-26 06:00:00
3:00 AM,77.0,69.8,78,29.98,6.2,East,9.2,-,N/A,,Partly Cloudy,90,2014-01-26 07:00:00
4:00 AM,77.0,68.0,74,29.98,6.2,East,10.4,-,N/A,,Scattered Clouds,80,2014-01-26 08:00:00
5:00 AM,77.0,68.0,74,30.01,6.2,East,12.7,-,N/A,,Partly Cloudy,80,2014-01-26 09:00:00
6:00 AM,77.0,64.4,65,30.01,6.2,East,12.7,-,N/A,,Partly Cloudy,80,2014-01-26 10:00:00
7:00 AM,77.0,64.4,65,30.04,6.2,East,10.4,-,N/A,,Partly Cloudy,90,2014-01-26 11:00:00
8:00 AM,79,67,60,30.07,28,East,9.2,,,,Scattered Clouds,90,2014-01-26 12:00:00
8:00 AM,78.8,68.0,69,30.06,6.2,East,9.2,-,N/A,,Partly Cloudy,90,2014-01-26 12:00:00
9:00 AM,80.6,68.0,65,30.06,6.2,East,11.5,-,N/A,,Partly Cloudy,90,2014-01-26 13:00:00
10:00 AM,80.6,66.2,61,30.09,6.2,East,13.8,-,N/A,,Partly Cloudy,90,2014-01-26 14:00:00
11:00 AM,82,68,54,30.10,28,East,12.7,,,,Mostly Cloudy,90,2014-01-26 15:00:00
11:00 AM,80.6,68.0,65,30.09,-9999.0,East,12.7,-,N/A,,Mostly Cloudy,90,2014-01-26 15:00:00
12:00 PM,82.4,68.0,62,30.06,6.2,East,12.7,-,N/A,,Partly Cloudy,90,2014-01-26 16:00:00
1:00 PM,80.6,68.0,65,30.04,6.2,East,11.5,-,N/A,,Partly Cloudy,100,2014-01-26 17:00:00
2:00 PM,81,69,58,30.03,25,East,11.5,,,,Partly Cloudy,100,2014-01-26 18:00:00
2:00 PM,80.6,68.0,65,30.01,6.2,East,11.5,-,N/A,,Scattered Clouds,100,2014-01-26 18:00:00
3:00 PM,82.4,66.2,58,30.01,6.2,East,11.5,-,N/A,,Scattered Clouds,100,2014-01-26 19:00:00
4:00 PM,80.6,68.0,65,29.98,6.2,East,12.7,-,N/A,,Scattered Clouds,100,2014-01-26 20:00:00
5:00 PM,80,68,59,30.01,25,East,13.8,,,,Partly Cloudy,90,2014-01-26 21:00:00
5:00 PM,80.6,68.0,65,30.01,6.2,East,13.8,-,N/A,,Scattered Clouds,90,2014-01-26 21:00:00
6:00 PM,78.8,68.0,69,30.01,6.2,East,10.4,-,N/A,,Partly Cloudy,100,2014-01-26 22:00:00
7:00 PM,78.8,68.0,69,30.04,6.2,East,11.5,-,N/A,,Partly Cloudy,90,2014-01-26 23:00:00
8:00 PM,78,68,64,30.06,19,East,11.5,,,,Partly Cloudy,90,2014-01-27 00:00:00
8:00 PM,78.8,68.0,69,30.04,6.2,East,11.5,-,N/A,,Scattered Clouds,90,2014-01-27 00:00:00
9:00 PM,78.8,68.0,69,30.06,6.2,East,11.5,-,N/A,,Scattered Clouds,90,2014-01-27 01:00:00
10:00 PM,78.8,68.0,69,30.06,6.2,East,11.5,-,N/A,,Scattered Clouds,80,2014-01-27 02:00:00
11:00 PM,78,69,66,30.06,19,East,15.0,,,,Partly Cloudy,100,2014-01-27 03:00:00
11:00 PM,78.8,68.0,69,30.06,6.2,East,15.0,-,N/A,,Scattered Clouds,100,2014-01-27 03:00:00